This is the latest recevied weather packets stored in our database for station/object OK5TVR-5. If no packets are shown the sender has not sent any weather packets the latest 10 day(s).
| Time | Temp. | Humidity | Pressure | Rain* | Wind** | Luminosity | Snow |
|---|---|---|---|---|---|---|---|
| 1777786259 | 9.44° C | 72% | 1010.7 hPa | 0 mm | - | - | - |
| 1777786258 | 9.44° C | 72% | 1010.7 hPa | 0 mm | - | - | - |
| 1777786258 | 9.44° C | - | - | 0 mm | - | - | - |
| 1777785357 | 8.33° C | 77% | 1010.7 hPa | 0 mm | - | - | - |
| 1777785357 | 8.33° C | 77% | 1010.7 hPa | 0 mm | - | - | - |
| 1777784457 | 6.67° C | 78% | 1012 hPa | 0 mm | - | - | - |
| 1777784457 | 6.67° C | 78% | 1012 hPa | 0 mm | - | - | - |
| 1777783556 | 6.11° C | 87% | 1012.1 hPa | 0 mm | - | - | - |
| 1777781756 | 4.44° C | 86% | 1012.3 hPa | 0 mm | - | - | - |
| 1777781755 | 4.44° C | 86% | 1012.3 hPa | 0 mm | - | - | - |
| 1777780855 | 4.44° C | 88% | 1012.3 hPa | 0 mm | - | - | - |
| 1777780854 | 4.44° C | 88% | 1012.3 hPa | 0 mm | - | - | - |
| 1777779951 | 3.89° C | 86% | 1012.3 hPa | 0 mm | - | - | - |
| 1777779052 | 4.44° C | 85% | 1012.3 hPa | 0 mm | - | - | - |
| 1777779052 | 4.44° C | 85% | 1012.3 hPa | 0 mm | - | - | - |
| 1777778150 | 4.44° C | 85% | 1012.2 hPa | 0 mm | - | - | - |
| 1777778149 | 4.44° C | 85% | 1012.2 hPa | 0 mm | - | - | - |
| 1777777247 | 5° C | - | - | 0 mm | - | - | - |
| 1777777247 | 5° C | 86% | 1012.2 hPa | 0 mm | - | - | - |
| 1777776345 | 5° C | 85% | 1012.2 hPa | 0 mm | - | - | - |
| 1777776344 | 5° C | 85% | 1012.2 hPa | 0 mm | - | - | - |
| 1777775444 | 4.44° C | 83% | 1012.2 hPa | 0 mm | - | - | - |
| 1777775444 | 4.44° C | 83% | 1012.2 hPa | 0 mm | - | - | - |
| 1777774547 | 5° C | - | - | 0 mm | - | - | - |
| 1777774546 | 5° C | - | - | 0 mm | - | - | - |
* Rain latest hour (hover to see other rain measurements)
** Current wind speed in m/s (hover to see current wind gust speed)